Погода Кумены

Поиск расширенной информации на нашем сайте:

Полезная информация:

Новости сайта



02.01.2020
Опубликован Долгосрочный прогноз погоды по городам России и ближнего зарубежья на январь 2020 года.
Карты: Прогноз на январь и февраль 2020 года, Сравнение прогнозируемой аномалии приземной температуры воздуха на январь 2020 года по разным моделям.




Погода Кумены - сегодня

Время (UTC), дата Ветер
(°,м/с) 
Видим.   Явления Облачность Т
(°С)
Тd
(°С)
f(%) Тe
(°С)
Pmin
(гПа)
dP
(гПа)
Po
(мм)
O2
(г/м3)
Тmin Tmax R s Состояние
почвы
18 29.11.20 120 (ЮВ) 3-6{06}  20000 м    10/0 средняя 
[As op]
-5.6 -7.2 88 -8  1046.8  0.3  767  317           
21 29.11.20 150 (ЮВ) 3-6{06}  20000 м    10/0 средняя 
[As op]
-4.8 -6.3 89 -7  1047.1  0.4  768  316           
00 30.11.20 150 (ЮВ) 3-5{06}  20000 м    10/0 средняя 
[As op]
-4.5 -5.8 91 -7  1046.6  -0.4  767  315           
03 30.11.20 160 (Ю) 4-6{07}  20000 м    10/10 300 м 
[Ns]
-4.1 -5.4 91 -7  1046.6  767  315  -6.1      равномерный
сухой снег
100% 
06 30.11.20 150 (ЮВ) 3-6{07}  8000 м  дымка  10/10 300 м 
[St]
-3.7 -5 91 -6  1047  0.4  768  314           
09 30.11.20 160 (Ю) 4-8{08}  12000 м    10/10 300 м 
[St]
-3 -4.7 88 -6  1046.3  -0.6  767  313           
12 30.11.20 150 (ЮВ) 3-6{08}  14000 м    10/10 600 м кучево-дожд. 
[Cb cap]
-3.6 -5.4 87 -6  1045.8  -0.6  767  314           
15 30.11.20 160 (Ю) 4-10{10}  10 км    8/8 600 м кучево-дожд. 
[Cb cap]
-4 -5.9 87 -7  1044.6  -1.2  766  314    -2.9       
18 30.11.20 170 (Ю) 4-8{11}  20000 м    6/0 средняя 
[Ac lent]
-5.1 -7.1 86 -8  1044.5  -0.2  766  315           
21 30.11.20 170 (Ю) 4-10{10}  20000 м    10/0 средняя 
[Ac As]
-6.4 -8.7 84 -10  1044.8  0.2  766  317           
00 01.12.20 170 (Ю) 5-8{10}  20000 м    10/0 верхняя 
[Ci fib]
-7.5 -9.9 83 -12  1044.9  766  318           
03 01.12.20 170 (Ю) 4-7{09}  20000 м    10/0 верхняя 
[Ci fib]
-9 -11.5 82 -13  1045.1  0.1  766  320  -9      равномерный
сухой снег
100% 
06 01.12.20 170 (Ю) 4-7{08}  35000 м    3/0 верхняя 
[Ci fib]
-9.7 -12.1 83 -14  1045.7  0.4  766  321  -9.8         
09 01.12.20 170 (Ю) 3-6{09}  30000 м    3/0 верхняя 
[Ci fib]
-8 -11.1 78 -11  1045  -0.4  766  319           
12 01.12.20 170 (Ю) 3-6{07}  28000 м    3/0 верхняя 
[Ci fib]
-8.3 -11.1 80 -11  1044.8  -0.3  766  319           
15 01.12.20 170 (Ю) 4-8{08}  10 км    ясно 
-9.8 -12.1 83 -14  1044.8  -0.1  766  321    -7.6       
21 01.12.20 180 (Ю) 4-7{09}  10 км    10/0 средняя 
[As op]
-9.1 -10.5 90 -13  1043.9  -0.8  765  320           
00 02.12.20 180 (Ю) 2-5{07}  10 км    10/0 средняя 
[As op]
-8 -9.4 90 -10  1042.9  -0.8  764  318           
03 02.12.20 190 (Ю) 3-6{08}  20000 м    10/0 средняя 
[As op]
-7.9 -9.3 90 -11  1042.3  -0.6  764  318  -11.5      равномерный
сухой снег
100% 
06 02.12.20 200 (Ю) 3-6{07}  20000 м    10/0 средняя 
[As op]
-7.6 -9.4 87 -10  1042.2  -0.1  764  318           
09 02.12.20 200 (Ю) 3-5{07}  20000 м    10/0 средняя 
[As op]
-7.3 -9.4 85 -10  1041.6  -0.5  764  317           
12 02.12.20 210 (ЮЗ) 2-5{06}  22000 м  {снег}  10/0 средняя 
[As op]
-7.4 -9.6 84 -9  1041.2  -0.4  763  317           
15 02.12.20 210 (ЮЗ) 2-4{05}  20000 м    10/10 300 м 
[Ns]
-7.5 -9.8 84 -9  1041.2  763  317    -7.2  0.0     
18 02.12.20 170 (Ю) 1-2{05}  10 км    9/9 600 м 
[Sc]
-9.3 -11 87 -9  1041.5  0.1  763  320           
21 02.12.20 170 (Ю) 1-2{03}  10 км    10/10 600 м 
[Sc]
-10.9 -12.3 89 -11  1042.1  0.5  764  322           
Время (UTC), дата Ветер
(°,м/с) 
Видим.   Явления Облачность Т
(°С)
Тd
(°С)
f(%) Тe
(°С)
Pmin
(гПа)
dP
(гПа)
Po
(мм)
O2
(г/м3)
Тmin Tmax R s Состояние
почвы

Для получения пояснительной информации подведите курсор к названию столбца.

ПОГОДА Кумены - архив

Всё, что Вы хотите узнать о погоде Кумены - удобно и подробно!

Выберите нужную дату (начиная с 1 января 2019* года) и нажмите кнопку "Найти".
Будут отображены архивные сводки погоды по пункту Кумены, начиная с указанной даты.


Отображать данные в формате CSV (для использования в таблицах Excel)


Внимание! Наш архив погоды предназначен исключительно для личного некоммерческого использования в познавательных целях. Если Вам необходимы официальные справки о состоянии погоды (для производственных, юридических, коммерческих и т.п. целей), обращайтесь в органы Росгидромета.

*Примечание: данная дата относится к архиву по метеостанциям СССР (Россия, СНГ, Балтия).
Архив по метеостанциям Зарубежной Европы и Азии (кроме Китая) хранится 10 дней, по другим регионам земного шара (Китай, Африка, Америка, Австралия, Океания) - 1 день.

Кумены - район местоположения метеостанции


Название, широта, долгота, высота метеостанции:
Кумены 58.1°ш. 49.9°д. 177 м над ур. моря [Российская Федерация]

Дополнительная информация

В oтличие oт бoльшинства пoгoдных сайтoв мы публикуем пoдрoбную метеoинфoрмацию в детальнoм прoфессиoнальнoм фoрмате.

Характеристики температуры и влажнoсти вoздуха измеряются на высoте 2 м в тени вдали oт зданий и деревьев.
Скoрoсть ветра измеряется на высoте 10 м (на урoвне рoста челoвека скoрoсть ветра ниже в 1.5-2 раза). Если метеoстанция нахoдится в гoрoде или в лесу, тo скoрoсть ветра занижена на 2-4 м/с пo сравнению с oткрытым местoм. Скoрoсть ветра над акватoриями крупных рек и oзёр, а также на вершинах хoлмoв на 2-5 м/с выше, чем в oбычных услoвиях.
Атмoсфернoе давление в разных тoчках местнoсти мoжет значительнo oтличаться oт давления на метеoстанции, в зависимoсти oт услoвий рельефа (при пoдъёме на 10 м давление пoнижается примернo на 1 мм рт.ст.).